User: anonymous   Login
Location: Bishop�s Knoyle
(51.0728°N, 2.1714°W)
Time: 02:52:47
(UTC+00:00)
Language:

Cosmos 1680 Rocket - Orbit

View from above orbital plane
View from above orbital plane
View from above satellite
View from above satellite

Ground track
Ground track

The orbit data is extracted from the following two-line orbital elements,

1 16012U 85079B   20339.38051771  .00000097  00000-0  41958-4 0  9995
2 16012  74.0591 332.6436 0016317 279.4137  80.5171 14.36346585845583
Epoch (UTC): 04 December 2020 09:07:56
Eccentricity: 0.0016317
inclination: 74.0591°
perigee height: 759 km
apogee height: 782 km
right ascension of ascending node: 332.6436°
argument of perigee: 279.4137°
revolutions per day: 14.36346585
mean anomaly at epoch: 80.5171°
orbit number at epoch: 84558

The dashed part of the orbit path shows where the satellite is in the earth's shadow,  

DLR